Weather Roundup
Issued by NWS Springfield, MO

Home | Current Version | Previous Version | Text Only | Print | Product List | Glossary On
Versions: 1 2 3 4 5 6 7 8 9 10 11 12 13 14 15 16 17 18 19 20 21 22 23 24 25 26 27 28 29 30 31 32 33 34 35 36 37 38 39 40 41 42 43 44 45 46 47 48 49 50
000
NZUS99 KSGF 142107
HRRSGF

HOURLY WEATHER
NATIONAL WEATHER SERVICE SPRINGFIELD MO
300 PM CST THU DEC 14 2017

......SGF CWA......

CITY           SKY/WX    TMP DP  RH WIND       PRES   REMARKS
SPRINGFIELD    CLOUDY    38  24  57 N8        30.07S WCI  32
JOPLIN         CLOUDY    41  27  57 NW7       30.10S
WEST PLAINS    CLOUDY    39  21  48 NW10      30.05S WCI  32
ROLLA          CLOUDY    35  22  58 NW8       30.06R WCI  29
OSAGE BEACH    CLOUDY    37  23  56 VRB6      30.09S WCI  32
BRANSON        CLOUDY    37  21  52 N12G17    30.08R WCI  30

......SURROUNDING SGF CWA......

CITY           SKY/WX    TMP DP  RH WIND       PRES   REMARKS
CHANUTE        PTSUNNY   46  25  43 W6        30.09F
PARSONS        MOSUNNY   46  26  45 NW9       30.11F
COFFEYVILLE    MOSUNNY   48  26  42 NW9       30.11F
EMPORIA        CLOUDY    47  25  42 N12       30.07S
GROVE OK       CLOUDY    43  30  61 NW6       30.12S
ROGERS AR      CLOUDY    39  25  57 N8        30.08F WCI  33
SILOAM SPRINGS CLOUDY    41  26  55 N10       30.09F
HARRISON AR    CLOUDY    40  23  50 NW8       30.05F WCI  34
NEAR YELLVILLE CLOUDY    44  22  41 NW14      30.07F

......KANSAS AND MISSOURI......

CITY           SKY/WX    TMP DP  RH WIND       PRES   REMARKS
KANSAS CTY INT CLOUDY    41  24  51 VRB5      30.06F
DOWNTOWN KC    CLOUDY    42  23  46 NW5       30.08R
COLUMBIA       CLOUDY    33  21  61 N6        30.08R WCI  28
SEDALIA        CLOUDY    36  25  64 N10       30.10S WCI  28
ST JOSEPH      CLOUDY    42  25  50 NW9       30.07S
ST LOUIS       CLOUDY    32  20  61 NW7       30.08R WCI  26
SPIRIT OF STL  CLOUDY    33  20  58 NW5       30.09R WCI  29
KIRKSVILLE     CLOUDY    31  24  75 NW5       30.07R WCI  26
WICHITA        CLOUDY    50  26  39 NW10      30.08F
TOPEKA         CLOUDY    47  27  45 NW10      30.07S
OLATHE         CLOUDY    39  25  57 VRB3      30.07S

......TENNESSEE......

CITY           SKY/WX    TMP DP  RH WIND       PRES   REMARKS
MEMPHIS        MOSUNNY   50  28  42 N9        30.02S
NASHVILLE      CLOUDY    39  25  57 NW10      30.04R WCI  32

......ARKANSAS.......

CITY           SKY/WX    TMP DP  RH WIND       PRES   REMARKS
FAYETTEVILLE   CLOUDY    42  26  53 N7        30.08R
FT SMITH       SUNNY     53  27  36 NW14      30.07R
LITTLE ROCK    SUNNY     54  29  38 NW12      30.02S

......OKLAHOMA.......

CITY           SKY/WX    TMP DP  RH WIND       PRES   REMARKS
TULSA          MOSUNNY   48  25  40 N10       30.12S
PONCA CITY     SUNNY     51  25  36 N12       30.11F
MCALESTER      PTSUNNY   53  27  36 N17G25    30.08S
OKLAHOMA CITY  MOSUNNY   50  25  37 N17G23    30.12S

......IOWA............

CITY           SKY/WX    TMP DP  RH WIND       PRES   REMARKS
DES MOINES     CLOUDY    32  19  58 NW8       30.06S WCI  25
QUAD CITIES    CLOUDY    29  17  61 W5        30.07S WCI  24

......ILLINOIS........

CITY           SKY/WX    TMP DP  RH WIND       PRES   REMARKS
QUINCY         CLOUDY    29  16  58 SW6       30.08R WCI  23
CHICAGO        PTSUNNY   26   7  44 NW3       30.04S




USA.gov is the U.S. government's official web portal to all federal, state and local government web resources and services.